Theta_e
306 305 304 304 303 302 301 300 299 299 299 297 297 297 296 296 296 296 295 295 294 294 293 293 293 293 293 293 294 293 292 294 294 294 295 294 292 292 291 290 290 291 292
307 306 305 304 303 302 302 301 300 299 299 298 297 297 297 296 296 296 295 295 294 294 294 293 293 293 293 294 294 293 292 294 294 294 294 294 293 292 291 291 291 291 292
307 306 305 304 304 303 302 301 300 299 299 299 298 297 297 296 296 296 295 295 294 294 294 293 293 293 293 294 295 294 293 292 294 294 293 293 293 292 291 291 291 290 291
307 306 305 305 304 303 303 302 301 300 299 299 299 297 297 297 296 296 296 295 294 294 294 293 293 293 294 293 295 295 293 292 294 294 293 293 292 292 291 291 291 291 291
307 307 306 305 304 303 302 302 301 300 300 299 299 299 297 297 297 296 296 296 295 294 294 293 294 294 294 293 296 296 293 293 294 293 293 293 291 292 291 291 291 291 292
308 307 306 305 304 304 303 302 301 301 300 299 299 299 299 297 297 297 296 296 296 295 294 294 294 294 294 293 294 294 293 295 292 290 292 292 291 291 292 291 291 290 291
308 307 306 306 305 304 303 302 302 301 300 300 299 299 299 299 297 297 296 296 296 296 294 294 294 294 294 293 294 294 293 292 291 290 290 290 291 292 293 292 291 290 290
308 307 306 306 305 304 304 302 302 301 301 300 300 299 299 299 298 297 296 296 296 296 295 294 294 294 294 294 294 293 293 293 291 290 290 291 292 293 294 291 291 290 290
306 306 306 305 305 304 304 303 302 302 301 300 300 300 299 299 299 298 296 296 296 296 296 295 294 295 295 294 293 293 293 293 291 291 290 290 291 292 291 290 291 290 290
312 310 307 305 305 305 304 303 302 302 301 301 300 300 300 299 298 298 297 296 296 296 296 295 294 295 295 294 293 292 292 292 291 291 290 290 291 291 290 290 290 290 290
312 312 311 310 308 305 303 303 302 302 301 301 300 300 300 299 299 298 298 297 297 296 296 295 295 295 296 294 292 292 292 293 291 292 291 290 290 290 290 290 290 290 289
311 311 311 310 310 309 306 303 302 301 301 301 300 300 300 300 299 298 298 298 297 296 296 296 295 295 296 294 292 292 292 292 291 291 292 290 290 290 290 290 289 290 289
311 310 309 309 309 309 309 307 303 301 301 301 300 300 300 300 299 299 298 298 297 297 297 296 295 295 296 294 293 292 292 292 291 291 292 291 290 290 290 290 290 289 289
311 309 307 306 306 307 308 308 306 304 301 301 301 300 300 300 300 299 298 298 298 297 297 296 295 296 296 295 295 293 293 291 291 291 292 292 290 290 290 289 290 289 289
308 306 305 304 304 305 306 307 307 306 305 302 301 300 300 300 300 299 299 298 298 298 297 296 296 296 296 296 296 294 292 292 290 291 292 292 291 290 290 289 289 289 289
306 307 306 305 304 303 303 305 306 306 305 304 302 301 300 299 299 299 298 298 297 297 297 296 296 296 296 296 296 295 293 291 290 291 291 293 292 291 290 290 290 289 289
307 306 306 305 304 303 302 303 304 305 304 304 303 301 301 300 299 299 298 298 297 297 297 297 296 296 296 296 295 295 293 291 290 291 291 291 293 292 291 290 290 289 289
306 306 305 304 302 302 302 302 303 304 304 304 303 302 301 300 299 298 298 297 297 297 297 297 296 296 296 296 295 294 292 290 290 290 291 291 292 293 292 290 290 289 289
305 305 304 304 302 300 301 302 302 303 304 303 303 302 301 300 299 298 298 297 297 297 297 297 296 296 296 296 295 294 291 290 290 290 291 291 291 293 293 291 290 289 289
304 304 304 304 303 300 300 301 302 302 302 302 302 302 301 299 299 298 298 297 297 297 297 297 296 296 296 296 295 293 291 290 290 290 290 291 290 291 292 292 290 289 289
304 303 303 303 303 302 300 300 301 301 301 301 301 301 300 299 299 298 298 298 297 297 297 297 296 296 296 295 295 293 291 290 290 290 290 290 291 290 291 292 292 290 289
302 302 302 302 301 301 300 300 299 300 300 300 301 300 299 298 299 298 298 297 297 297 297 297 296 296 296 295 294 293 291 291 290 290 290 290 290 290 290 291 292 291 289
300 300 301 301 301 300 299 299 298 298 298 299 300 300 299 298 299 298 298 297 297 297 297 297 296 296 296 295 294 293 292 291 291 290 290 290 290 290 290 291 291 291 289
300 300 300 299 299 298 297 297 297 297 296 296 297 298 299 298 298 298 298 297 297 297 297 296 296 296 296 295 294 293 292 291 290 290 289 289 290 290 290 290 291 291 289
299 298 298 297 297 296 296 296 296 295 295 295 295 296 297 298 298 298 298 297 297 297 296 296 296 296 295 295 295 293 292 292 290 290 289 289 289 289 290 290 291 290 288
299 298 297 295 293 293 293 294 293 294 294 294 295 295 295 296 297 297 297 297 297 296 296 296 295 295 295 295 295 293 292 292 290 289 289 289 289 289 289 290 290 289 288
Wind_Speed
36 37 38 36 33 30 28 27 26 24 23 23 22 21 20 19 18 19 18 17 17 17 17 18 17 17 18 16 15 16 14 14 23 28 23 24 26 24 25 22 20 16 14
33 34 35 36 35 34 31 29 27 26 25 24 24 24 22 21 19 20 19 18 18 17 17 18 17 17 16 14 15 15 14 13 20 24 24 25 23 22 25 25 22 14 12
31 31 32 34 36 35 33 31 28 28 27 26 26 26 24 21 21 20 20 19 19 18 17 18 17 17 16 14 14 15 15 17 16 22 25 23 21 20 24 24 23 17 8
25 28 30 31 33 34 33 31 30 29 29 29 28 26 25 23 23 22 21 20 20 19 18 18 17 17 16 15 14 14 16 17 16 18 20 20 21 18 19 27 24 18 9
20 24 25 26 28 32 34 32 31 30 30 30 29 28 27 26 25 23 22 21 21 20 19 18 17 16 16 16 14 17 17 16 16 18 17 18 21 18 22 26 28 20 12
14 16 19 23 26 29 31 32 32 32 31 32 32 31 29 28 25 24 23 23 21 21 19 18 17 16 16 16 15 16 17 14 16 17 15 16 18 17 19 23 25 28 20
12 14 15 18 22 25 28 31 32 33 32 33 33 33 32 29 26 25 24 25 23 22 20 18 17 16 16 16 16 16 16 15 15 16 16 16 17 13 19 21 21 21 18
11 14 16 18 19 21 25 29 31 32 33 33 33 33 33 30 28 26 25 26 25 23 21 19 18 16 16 16 16 16 15 14 13 13 13 12 14 13 17 16 18 18 15
9 10 13 16 18 20 24 25 27 30 31 33 33 32 33 32 28 28 27 28 27 25 22 20 19 17 15 16 17 16 15 12 13 12 11 11 12 12 14 13 14 16 18
13 13 14 15 18 20 21 22 24 27 29 29 31 32 31 31 29 29 28 29 28 26 23 22 20 17 15 15 17 15 15 11 12 11 11 10 10 10 11 11 12 13 15
14 16 17 18 18 19 20 22 23 25 28 29 30 30 31 31 29 29 29 31 29 27 25 23 21 18 16 15 15 15 12 11 11 10 9 8 8 8 9 9 9 10 12
21 22 21 21 22 22 22 23 23 25 28 30 31 31 32 31 31 30 31 31 28 28 27 23 20 19 16 15 14 14 13 12 12 11 9 8 7 7 7 8 9 8 10
27 29 29 27 25 25 25 25 25 26 29 30 32 33 32 30 31 31 30 31 30 30 27 23 21 21 18 16 14 14 13 14 13 12 10 8 7 6 6 7 7 8 8
33 34 32 32 29 27 27 27 27 28 30 30 31 33 31 30 30 30 31 31 31 30 28 24 23 22 21 18 16 15 18 16 15 14 11 9 8 7 5 5 6 7 7
33 31 28 26 28 28 28 29 29 28 28 29 30 29 32 31 27 26 28 31 31 30 28 26 26 28 27 25 22 19 20 19 18 15 13 11 9 8 6 5 4 5 5
29 27 29 29 27 28 28 29 29 27 27 27 28 29 30 29 25 26 26 27 28 27 31 32 32 32 31 27 24 22 22 21 20 18 16 14 11 9 7 6 4 4 4
27 29 30 31 30 29 28 28 31 29 26 26 27 30 30 27 27 26 25 26 27 29 36 34 34 33 32 29 26 25 24 23 21 21 19 16 14 12 9 7 6 4 4
27 27 27 29 30 30 28 27 28 28 30 26 24 25 26 26 26 27 25 24 28 32 36 35 35 33 31 30 27 26 24 25 25 23 21 19 16 14 12 10 8 6 5
27 26 25 25 26 28 28 27 25 27 27 28 24 23 24 25 24 25 27 32 34 35 37 35 33 33 30 29 28 27 25 27 26 25 23 21 19 16 14 12 10 8 7
23 24 24 24 25 26 25 26 25 26 26 27 26 22 20 22 26 30 33 36 37 36 36 35 32 30 29 29 29 28 27 28 28 27 25 23 22 19 16 14 12 10 8
20 21 22 22 22 24 25 25 24 24 26 26 26 22 19 22 26 29 34 36 40 37 35 34 31 29 28 28 29 29 28 30 29 28 26 25 24 22 19 17 15 12 10
20 21 21 23 23 23 24 24 23 24 24 26 24 22 19 22 25 29 32 35 34 35 34 32 30 29 28 29 30 30 30 31 30 29 27 26 25 23 21 19 17 15 13
20 21 22 23 23 23 23 23 24 24 25 25 24 24 22 23 24 27 30 32 32 32 32 32 30 29 28 28 29 30 30 31 30 28 28 27 26 25 23 21 19 17 15
19 20 20 21 22 23 23 23 24 24 25 25 24 24 26 24 23 25 27 29 30 31 31 31 30 29 29 29 29 30 29 29 28 27 26 26 26 25 24 22 20 18 16
19 20 21 22 23 23 23 22 22 24 25 24 24 24 24 24 23 25 26 26 28 30 31 31 30 29 29 30 29 28 28 29 28 28 28 27 26 26 24 22 21 19 17
17 18 19 19 20 21 22 23 25 25 25 23 23 23 23 23 23 22 24 26 26 28 30 30 30 29 28 29 29 27 27 28 29 29 28 28 28 27 26 24 22 20 18
Wind_Direction
247 245 244 244 245 247 248 249 250 251 253 254 256 258 259 262 265 269 277 281 285 289 292 295 297 299 304 301 301 305 303 306 305 314 320 326 335 342 350 352 353 344 338
250 248 245 244 243 246 249 250 250 250 251 254 254 256 257 260 264 268 274 279 282 285 289 291 295 297 304 298 299 305 298 301 300 312 316 323 332 343 353 357 2 348 344
250 250 248 245 243 244 249 252 252 251 250 250 252 254 257 258 262 266 271 275 280 283 286 289 292 294 301 296 296 300 300 292 298 303 310 317 329 341 355 4 5 2 4
246 246 247 247 246 246 249 252 254 255 252 250 252 254 255 255 258 262 268 273 277 281 283 286 288 289 294 294 292 293 301 291 300 301 305 314 330 341 349 357 10 12 22
240 242 246 248 248 248 249 251 254 254 254 253 252 253 254 254 256 260 264 269 273 278 280 283 285 284 287 290 290 287 295 291 294 301 302 310 326 336 353 358 2 8 14
246 249 250 251 251 249 249 252 253 256 256 254 253 253 254 255 257 258 260 265 270 273 276 278 280 281 281 281 273 276 286 281 294 302 303 308 320 332 338 351 354 3 6
266 256 253 253 255 254 253 251 252 254 256 255 254 254 255 257 256 256 258 263 266 270 273 275 276 279 277 280 273 274 279 281 291 298 303 310 309 339 331 339 346 356 360
292 278 269 265 261 257 255 255 254 255 256 256 256 256 256 256 256 255 256 259 264 268 270 272 273 275 274 275 270 273 276 279 290 297 301 307 304 324 314 329 336 345 355
330 306 285 274 269 263 259 258 257 256 256 256 258 257 257 257 255 255 254 256 261 265 267 267 269 271 271 269 268 271 269 276 287 294 301 305 307 303 309 327 333 340 353
345 336 316 298 285 275 270 263 259 256 257 256 256 256 257 257 253 253 253 255 258 262 263 263 264 266 265 264 263 265 265 273 279 284 302 303 304 308 312 320 331 338 346
325 323 319 310 301 290 278 266 262 259 256 253 255 254 254 253 251 250 251 254 258 261 261 261 261 259 261 260 259 257 261 267 268 272 292 297 299 307 313 317 326 334 341
312 310 307 301 296 290 283 276 266 260 258 257 255 254 253 251 251 247 248 251 255 257 259 262 258 252 254 251 252 249 253 256 257 258 276 285 291 300 315 320 324 330 339
311 310 304 295 289 285 282 279 271 265 261 260 258 257 256 254 252 251 248 250 251 253 257 258 253 248 249 244 247 243 240 241 246 251 262 269 278 282 299 308 318 332 339
308 306 299 294 287 281 278 275 272 267 264 262 262 260 260 257 252 249 249 246 247 248 252 248 245 244 244 247 243 236 236 244 240 242 249 254 262 271 280 294 312 326 333
306 304 300 297 293 287 278 275 273 271 267 265 265 268 265 260 255 254 251 248 246 247 249 246 239 235 235 239 241 241 240 240 235 233 237 245 247 256 266 278 296 316 324
302 301 300 298 293 289 286 280 274 271 270 268 264 260 261 261 254 248 243 242 240 237 237 239 239 239 240 242 242 241 241 237 234 228 228 236 241 242 251 261 272 288 305
299 300 301 300 297 293 288 284 284 279 273 268 261 259 259 259 256 250 244 242 239 232 235 238 240 242 243 242 242 241 242 237 231 226 224 229 236 236 235 240 249 262 278
299 299 300 300 300 296 291 286 281 278 280 274 269 267 262 257 252 251 242 235 230 230 237 239 241 242 242 242 241 241 238 230 224 221 220 224 228 232 231 230 234 240 248
298 298 299 299 299 298 296 290 284 279 275 277 274 265 263 257 250 245 238 234 234 234 239 241 242 242 241 241 241 240 235 229 224 221 218 220 223 226 228 228 229 234 242
296 297 299 300 302 300 297 295 290 283 278 277 276 271 263 252 245 240 234 232 235 237 241 246 247 245 239 238 239 237 232 225 222 220 217 216 221 223 225 229 228 229 236
298 301 305 305 305 301 299 298 296 289 283 281 280 278 265 250 249 249 249 240 241 241 243 245 247 243 238 237 235 234 232 227 225 222 219 216 217 222 223 226 228 229 231
298 301 302 304 304 302 301 300 296 290 285 282 281 278 270 255 246 249 249 250 248 248 250 249 248 245 240 237 236 233 232 228 225 222 219 215 215 218 221 224 226 228 230
300 301 301 300 300 301 301 301 300 295 287 282 280 277 270 261 257 252 253 253 250 249 248 246 244 240 239 237 235 235 234 231 228 225 221 216 214 215 218 223 226 227 227
309 312 311 309 307 307 306 303 299 297 293 287 281 276 274 270 262 259 256 255 252 248 247 244 242 239 237 236 234 233 232 229 228 225 222 219 216 214 217 221 224 226 225
316 318 318 317 318 317 314 312 307 300 295 292 289 283 277 272 266 260 258 255 251 247 245 243 240 237 234 234 234 232 231 226 222 220 218 216 216 215 217 219 221 222 223
319 326 331 334 335 334 330 328 325 318 310 301 292 286 282 276 270 262 257 255 251 247 244 240 237 235 232 231 230 228 227 223 221 219 218 216 214 214 214 217 218 220 220